DW5519 Bristol RI US current weather conditions

sailwx.info

Wind from 156 at 2 knots

Air temperature -33.3° C

Last reported at 2020-Jan-27 12:00 UTC.
Time now 2020-Jan-27 12:34 UTC

Location: N 41°39' W 071°18'.
View on Google Maps.

See reports from other nearby stations

  
Tides and Currents Weather Stations Pressure Air Temp Water Temp Dewpoint Dewpoint Depression Visibility Wind Speed Wind Dir Waves Ship Positions
date/time (UTC)wind fromknots sea level pressurealtimeterstation pressurevisibilityair tempwater tempwave heightnotes
2020-Jan-27 12:00 156 2 -33.3
2020-Jan-27 11:46 159 2 -33.9
2020-Jan-27 11:32 280 3 -33.9
2020-Jan-27 11:17 280 3 -33.9
2020-Jan-27 11:00 168 3 -33.9
2020-Jan-27 10:47 164 2 -33.9
2020-Jan-27 10:31 147 1 -33.9
2020-Jan-27 10:02 181 0 -33.9
2020-Jan-27 09:47 280 2 -33.3
2020-Jan-27 09:30 280 1 -33.3
2020-Jan-27 09:16 280 0 -33.9
2020-Jan-27 08:46 163 -33.9
2020-Jan-27 08:31 163 -33.9
2020-Jan-27 08:16 163 -33.9
2020-Jan-27 08:01 158 -33.9
2020-Jan-27 07:47 158 -33.9
2020-Jan-27 07:32 158 -33.9
2020-Jan-27 07:15 158 -33.3
2020-Jan-27 07:01 158 -33.9
2020-Jan-27 06:46 158 -33.3
2020-Jan-27 06:16 158 -32.8
2020-Jan-27 06:02 158 -32.8
2020-Jan-27 05:46 090 -32.8
2020-Jan-27 05:31 083 -32.2
2020-Jan-27 05:16 083 -32.2
2020-Jan-27 05:01 083 -31.7
2020-Jan-27 04:31 069 0 -31.7
2020-Jan-27 04:17 179 -32.2
2020-Jan-27 04:02 280 -32.2
2020-Jan-27 03:31 184 -32.2
2020-Jan-27 03:15 184 -32.2
2020-Jan-27 02:31 223 -32.8
2020-Jan-27 02:16 229 -32.8
2020-Jan-27 02:02 166 -32.2
2020-Jan-27 01:47 166 -32.2
2020-Jan-27 01:31 098 -32.2
2020-Jan-27 01:01 098 -31.7
2020-Jan-27 00:46 098 -31.1
2020-Jan-27 00:31 098 -31.1
2020-Jan-27 00:02 098 -31.7
2020-Jan-26 23:46 098 -31.7
2020-Jan-26 23:32 098 -31.1
2020-Jan-26 23:17 098 -31.1
2020-Jan-26 23:02 098 -31.1
2020-Jan-26 22:46 098 -30.0
2020-Jan-26 22:31 098 0 -30.0
2020-Jan-26 22:16 046 2 -28.9
2020-Jan-26 22:01 052 4 -28.3
2020-Jan-26 21:45 055 3 -27.8
2020-Jan-26 21:33 347 2 -26.7
2020-Jan-26 21:16 139 1 -26.1
2020-Jan-26 20:47 143 2 -25.6
2020-Jan-26 20:31 131 2 -24.4
2020-Jan-26 20:16 118 1 -23.9
2020-Jan-26 19:46 137 0 -22.8
2020-Jan-26 19:30 145 1 -22.2
2020-Jan-26 19:16 171 2 -21.7
2020-Jan-26 18:46 125 0 -20.6
2020-Jan-26 18:30 140 1 -20.6
2020-Jan-26 18:16 116 1 -20.0
2020-Jan-26 18:01 149 1 -19.4
2020-Jan-26 17:45 154 0 -18.3
2020-Jan-26 17:17 157 2 -17.2
2020-Jan-26 17:02 208 1 -17.2
2020-Jan-26 16:47 182 1 -16.7
2020-Jan-26 16:30 222 2 -16.7
2020-Jan-26 16:03 175 1 -16.1
2020-Jan-26 15:46 205 1 -16.1
2020-Jan-26 15:32 166 1 -16.1
2020-Jan-26 15:02 142 2 -16.7
2020-Jan-26 14:46 280 1 -16.7
2020-Jan-26 14:30 220 1 -16.7
2020-Jan-26 14:02 096 2 -16.7
2020-Jan-26 13:46 139 2 -16.7
2020-Jan-26 13:32 154 2 -16.7
2020-Jan-26 13:17 129 1 -16.7
2020-Jan-26 13:00 125 0 -17.2
2020-Jan-26 12:31
2020-Jan-26 12:16
2020-Jan-26 12:02
2020-Jan-26 11:46 338 3 -17.8
2020-Jan-26 11:17 037 0 -17.8
2020-Jan-26 11:01 060 0 -17.8
2020-Jan-26 10:45 059 -17.8
2020-Jan-26 10:30 059 0 -17.8
2020-Jan-26 10:15 280 0 -17.8
2020-Jan-26 09:46 280 -17.8
2020-Jan-26 09:30 280 -17.8
2020-Jan-26 09:15 280 0 -17.8
2020-Jan-26 09:01 280 -17.8
2020-Jan-26 08:31 280 -17.8
2020-Jan-26 08:17 280 0 -17.8
2020-Jan-26 08:00 280 -17.8
2020-Jan-26 07:45 280 2 -18.3
2020-Jan-26 07:30 280 1 -18.9
2020-Jan-26 07:00 280 -19.4
2020-Jan-26 06:45 280 -18.9
2020-Jan-26 06:32 280 -18.3
2020-Jan-26 06:00 280 -18.9
2020-Jan-26 05:45 280 -18.9
2020-Jan-26 05:30 280 -18.9
2020-Jan-26 05:17 280 -18.9
2020-Jan-26 05:00 280 -18.9
2020-Jan-26 04:45 280 -19.4
2020-Jan-26 04:31 280 0 -19.4
2020-Jan-26 04:15 280 0 -18.9
2020-Jan-26 04:02 280 1 -18.9
2020-Jan-26 03:45 280 6 -19.4
2020-Jan-26 03:30 199 11 -20.0
2020-Jan-26 03:18 280 13 -20.0
2020-Jan-26 03:01 197 19 -19.4
2020-Jan-26 02:45 172 15 -20.0
2020-Jan-26 02:30 159 18 -20.6
2020-Jan-26 02:00 139 18 -21.1
2020-Jan-26 01:46 149 21 -21.7
2020-Jan-26 01:30 145 19 -21.7
2020-Jan-26 01:16 142 18 -22.8
2020-Jan-26 01:00 137 17 -23.3
2020-Jan-26 00:47 144 15 -23.9
2020-Jan-26 00:30 116 14 -25.6
2020-Jan-26 00:15 115 16 -26.1
2020-Jan-26 00:01 091 16 -26.7
2020-Jan-25 23:45 110 17 -27.2
2020-Jan-25 23:30 110 17 -27.8
2020-Jan-25 23:15 110 15 -27.8
2020-Jan-25 23:02 110 13 -28.3
2020-Jan-25 22:45 103 13 -29.4
2020-Jan-25 22:30 101 13 -30.0
2020-Jan-25 22:15 106 15 -30.6
2020-Jan-25 22:01 107 13 -30.6
2020-Jan-25 21:32 099 14 -31.1
2020-Jan-25 21:16 100 13 -31.7
2020-Jan-25 21:01 106 13 -32.2
2020-Jan-25 20:45 089 13 -32.2
2020-Jan-25 20:33 079 13 -32.8
2020-Jan-25 20:16 081 13 -32.8
2020-Jan-25 20:00 069 14 -32.8
2020-Jan-25 19:47 062 11 -33.3
2020-Jan-25 19:30 081 11 -33.3
2020-Jan-25 19:17 067 10 -33.3
2020-Jan-25 19:00 067 9 -33.3
2020-Jan-25 18:45 066 8 -33.3
2020-Jan-25 18:31 054 11 -33.3
2020-Jan-25 18:15 066 15 -33.3
2020-Jan-25 18:02 070 15 -33.3
2020-Jan-25 17:45 063 13 -33.3
2020-Jan-25 17:32 064 10 -33.3
2020-Jan-25 17:15 073 11 -33.3
2020-Jan-25 17:02 068 11 -33.9
2020-Jan-25 16:48 075 13 -33.9
2020-Jan-25 16:30 064 12 -33.9
2020-Jan-25 16:15 066 9 -34.4
2020-Jan-25 16:00 064 11 -35.0
2020-Jan-25 15:45 083 12 -35.0
2020-Jan-25 15:15 066 12 -36.1
2020-Jan-25 15:01 069 10 -36.7
2020-Jan-25 14:45 075 9 -36.7
2020-Jan-25 14:30 066 10 -37.2
2020-Jan-25 14:17 063 9 -37.2
2020-Jan-25 14:02 073 10 -37.8
2020-Jan-25 13:47 070 9 -38.3
2020-Jan-25 13:32 064 7 -38.9
2020-Jan-25 13:15 065 7 -38.9
2020-Jan-25 13:03 083 9 -38.9
2020-Jan-25 12:45 061 8 -39.4
2020-Jan-25 12:31 060 8 -40.0
2020-Jan-25 12:17 053 10 -40.6
2020-Jan-25 12:01 054 12 -41.1